Regional Weather Roundup
Issued by NWS Huntsville, AL

Home | Current Version | Previous Version | Text Only | Print | Product List | Glossary On
Versions: 1 2 3 4 5 6 7 8 9 10 11 12 13 14 15 16 17 18 19 20 21 22 23 24 25 26 27 28 29 30 31 32 33 34 35 36 37 38 39 40 41 42 43 44 45 46 47 48 49 50
000
ASUS44 KHUN 141510
RWRHUN

WEATHER ROUNDUP FOR THE TENNESSEE VALLEY
NATIONAL WEATHER SERVICE HUNTSVILLE AL
900 AM CST THU DEC 14 2017

ALZ001>004-141600-
NORTHWEST ALABAMA

CITY           SKY/WX    TMP DP  RH WIND       PRES   REMARKS
COURTLAND HCN    N/A     43 N/A N/A CALM        N/A
RUSSELLVILLE     N/A     39 N/A N/A MISG        N/A
SHOALS AIRPORT SUNNY     44  30  57 NE9       29.98R
SHOALS TVA RES   N/A     41 N/A N/A MISG        N/A
$$

ALZ005>007-016-141600-
NORTH CENTRAL ALABAMA

CITY           SKY/WX    TMP DP  RH WIND       PRES   REMARKS
CULLMAN AG STN   N/A     39 N/A N/A CALM        N/A
DECATUR AP     SUNNY     43  31  62 NE8       29.97R
HUNTSVILLE AP  MOSUNNY   44  33  65 NE10      29.95R
MERIDIANVILLE  SUNNY     39  30  70 N7        29.95R WCI  34
REDSTONE ARSN  SUNNY     42  31  64 NE12      29.94R
VINEMONT AP    FAIR      44  27  52 NW6       29.96R
$$

ALZ008>010-141600-
NORTHEAST ALABAMA

CITY           SKY/WX    TMP DP  RH WIND       PRES   REMARKS
ALBERTVILLE    SUNNY     41  34  75 W3        29.93R
FORT PAYNE     SUNNY     36  28  75 CALM      29.93R
SCOTTSBORO AP  SUNNY     41  30  65 CALM      29.95R
SCOTTSBORO HCN   N/A     36 N/A N/A MISG        N/A
VALLEY HEAD      N/A     32 N/A N/A MISG        N/A
$$

TNZ076-096-097-141600-
SOUTHEASTERN MIDDLE TENNESSEE

CITY           SKY/WX    TMP DP  RH WIND       PRES   REMARKS
TULLAHOMA      SUNNY     39  28  65 VRB6      29.94R WCI  35
WINCHESTER     SUNNY     37  30  75 N3        29.95R
$$

...SURROUNDING SITES...

CITY           SKY/WX    TMP DP  RH WIND       PRES   REMARKS
ATLANTA        MOSUNNY   46  31  55 W9        29.92R
ANNISTON       SUNNY     43  33  68 SW6       29.96R
BIRMINGHAM     MOSUNNY   44  31  60 SW3       29.99R
CHATTANOOGA    MOSUNNY   44  28  53 CALM      29.94R
CORINTH        FAIR      41  30  65 N8        29.99R
DALTON         SUNNY     37  30  75 CALM      29.94S
GADSDEN        SUNNY     46  32  58 CALM      29.96R
GOLDEN TRNGL   SUNNY     44  33  65 W3        29.98R
HALEYVILLE     FAIR      43  31  62 N6        29.97R
JACKSON TN     MOSUNNY   42  29  59 N12G17    30.01R
MEMPHIS        MOSUNNY   43  29  57 E9        30.03R
NASHVILLE      CLOUDY    39  28  64 N10       29.99R WCI  32
OXFORD MS      FAIR      43  30  61 NE10      30.02R
ROME           SUNNY     43  33  68 CALM      29.93R
SAVANNAH       SUNNY     41  32  70 N5        29.99R
SELMER         SUNNY     39  28  65 N9        29.98R WCI  33
TUPELO         SUNNY     44  29  55 N10       29.99R
TUSCALOOSA     SUNNY     40  36  86 CALM      30.01R
$$

...GULF COAST WEATHER...

CITY           SKY/WX    TMP DP  RH WIND       PRES   REMARKS
GULFPORT       PTSUNNY   47  45  93 CALM      30.03R FOG
PASCAGOULA     CLOUDY    48  45  89 CALM      30.03R
MOBILE         CLOUDY    49  44  83 CALM      30.03R
GULF SHORES    MOSUNNY   54  48  82 CALM      30.02S
PENSACOLA      CLOUDY    55  47  74 W5        30.03R
DESTIN         PTSUNNY   60  44  55 W6        30.03R
PANAMA CITY    MOSUNNY   58  48  70 N6        30.04R
APPALACHICOLA  MOSUNNY   62  52  69 N9        30.04R
$$




USA.gov is the U.S. government's official web portal to all federal, state and local government web resources and services.